NOAA 16 DEB, 41228

Orbit data source: Space-Track

NOAA 16 DEB, 41228 is space debris in SSO originally from a launch on Thu, 21 Sep 2000 UTC launched from the Air Force Western Test Range (AFWTR). Debris objects in space refer to the collection of defunct objects orbiting the Earth. Examples of debris include non-operational satellites, rocket bodies, and fragments generated from explosions, collisions, or faulty payload assembly.

Loading next visibility...
Identifier
41228, 2000-055EH
Orbit
SSO
Country
Flag of USUS
Related business
Manufacturer
Unknown
Mission
Spacecraft
Bus & Motor
Unknown
Mass
Unknown
Launch date (UTC)
2000-09-21 (25 years ago)
Launch vehicle
Unknown
Launch site
Air Force Western Test Range (AFWTR)
Object type
Payload
Rocket body
Debris
Shape & HBR
Unknown shape, 0.1 m
Radar Cross Section
Small (<0.1 m²)

Expand to show TLE details & history
Last TLE update: 1 day ago

TLE from 1 day ago
0 NOAA 16 DEB
1 41228U 00055EH  25348.45443924  .00005694  00000-0  22338-2 0  9998
2 41228  98.7313  68.0591 0019672 204.7699 155.2540 14.29649689516553
Epoch: 2025-12-14T10:54Z
TLE epoch observation values (Epoch: 2025-12-14T10:54:23.550Z)
Latitude
-0.00001°
Longitude
-178.90615°
Altitude
808.648 km
Speed
7.442 km/s
True Right ascension
04h 32m 14s
True Declination
0° 00' 00"
Sunlit
Object was in full shadow at epoch
Visualization orbit readout
Latitude
Unknown
Longitude
Unknown
Altitude
Unknown
Speed
Unknown
Apparent Right ascension
Unknown
Apparent Declination
Unknown
Sunlit
N/A
Visualization observer readout
Local Sidereal Time
16:54:10
Azimuth
Unknown
Elevation
Unknown
Doppler factor
Unknown
Orbital elements
Apogee altitude
804.15 km
Perigee altitude
775.947 km
Semi-major axis
7,168.186 km
Eccentricity
0.00197
Inclination
98.7313°
RAAN
68.0591°
Arg. of periapsis
204.7699°
True anomaly
155.34815°
Mean anomaly
155.254°
Eccentric anomaly
155.3011°
Mean motion
3.57626 °/min
Orbital period
100.66 mins
BSTAR
0.0022338
Loading maneuver chart data...
Computing Atmospheric mass density...
Loading historical data...
Loading historical data...
Loading historical data...
Loading historical data...
Loading historical data...
Loading historical data...
Loading historical data...

Documentation

Showing up to 5 results
|